Mound City, IL

10:37 PM CDT on August 25, 2016 (GMT -0500)
Cairo Regional

Weather History for KCIR - October, 2013

Change the Weather History Date:

Friday, October 11, 2013

  Actual Average Record
Temperature  
Mean Temperature 68 °F -  
Max Temperature 82 °F 71 °F 92 °F (1963)
Min Temperature 55 °F 51 °F 35 °F (1990)
Cooling Degree Days 4    
Growing Degree Days 18 (Base 50)    
Moisture  
Dew Point 58 °F    
Average Humidity 76    
Maximum Humidity 96    
Minimum Humidity 41    
Precipitation  
Precipitation 0.00 in - - ()
Sea Level Pressure  
Sea Level Pressure 30.02 in    
Wind  
Wind Speed 2 mph (South)    
Max Wind Speed 9 mph    
Max Gust Speed -    
Visibility 7 miles    
Events Fog    
Averages and records for this station are not official NWS values.
T = Trace of Precipitation, MM = Missing Value Source: NWS Daily Summary

Daily Weather History Graph

Daily Weather History Graph

Search for Another Location

Airport or City:

Trip Planner

Search our weather history database for the weather conditions in past years. The results will help you decide how hot, cold, wet, or windy it might be!

Date:

Astronomy

Oct. 11, 2013 Rise Set
Actual Time 7:01 AM CDT 6:25 PM CDT
Civil Twilight 6:35 AM CDT 6:51 PM CDT
Nautical Twilight 6:05 AM CDT 7:21 PM CDT
Astronomical Twilight 5:34 AM CDT 7:51 PM CDT
Moon 1:38 PM CDT (10/11) No Moon Set
Length of Visible Light 12h 16m
Length of Day
11h 24m
Waxing Crescent, 47% of the Moon is Illuminated
Oct 11
Waxing Crescent
Oct 11
First Quarter
Oct 18
Full
Oct 26
Last Quarter
Nov 3
New

Hourly Weather History & Observations

Time (CDT) Temp. Heat Index Dew Point Humidity Pressure Visibility Wind Dir Wind Speed Gust Speed Precip Events Conditions
12:15 AM 59.2 °F - 57.4 °F 94% 30.03 in 0.2 mi Calm Calm - N/A Fog Fog
12:35 AM 59.0 °F - 57.2 °F 94% 30.03 in 1.0 mi Calm Calm - N/A   Mist
12:55 AM 57.9 °F - 56.1 °F 94% 30.03 in 0.2 mi Calm Calm - N/A Fog Fog
1:15 AM 58.1 °F - 56.5 °F 94% 30.03 in 0.2 mi Calm Calm - N/A Fog Fog
1:55 AM 57.6 °F - 55.9 °F 94% 30.02 in 0.2 mi Calm Calm - N/A Fog Fog
2:15 AM 57.4 °F - 55.8 °F 94% 30.02 in 4.0 mi Calm Calm - N/A   Clear
2:35 AM 57.4 °F - 55.8 °F 94% 30.02 in 0.5 mi Calm Calm - N/A Fog Fog
2:55 AM 56.3 °F - 54.9 °F 95% 30.02 in 0.2 mi Calm Calm - N/A Fog Fog
3:15 AM 55.8 °F - 54.3 °F 95% 30.02 in 0.2 mi Calm Calm - N/A Fog Fog
3:35 AM 55.6 °F - 54.1 °F 95% 30.02 in 0.2 mi Calm Calm - N/A Fog Fog
3:55 AM 56.5 °F - 55.0 °F 95% 30.03 in 0.2 mi Calm Calm - N/A Fog Fog
4:15 AM 56.3 °F - 54.9 °F 95% 30.03 in 0.2 mi Calm Calm - N/A Fog Fog
4:35 AM 55.9 °F - 54.7 °F 96% 30.04 in 0.5 mi Calm Calm - N/A Fog Fog
4:55 AM 57.2 °F - 55.9 °F 96% 30.05 in 2.0 mi Calm Calm - N/A   Overcast
5:15 AM 58.1 °F - 57.0 °F 96% 30.05 in 3.0 mi Calm Calm - N/A   Overcast
5:35 AM 58.3 °F - 57.2 °F 96% 30.05 in 0.8 mi Calm Calm - N/A   Mostly Cloudy
5:55 AM 58.5 °F - 57.2 °F 96% 30.05 in 0.5 mi Calm Calm - N/A Fog Fog
6:15 AM 57.6 °F - 56.3 °F 96% 30.06 in 0.2 mi Calm Calm - N/A Fog Fog
6:35 AM 57.2 °F - 55.9 °F 96% 30.06 in 0.8 mi Calm Calm - N/A   Overcast
6:55 AM 58.3 °F - 57.0 °F 96% 30.06 in 0.5 mi Calm Calm - N/A Fog Fog
7:15 AM 57.7 °F - 56.5 °F 96% 30.06 in 0.2 mi Calm Calm - N/A Fog Fog
7:35 AM 58.1 °F - 56.7 °F 95% 30.06 in 0.8 mi Calm Calm - N/A   Mostly Cloudy
7:55 AM 59.5 °F - 58.5 °F 96% 30.06 in 2.5 mi Calm Calm - N/A   Scattered Clouds
8:15 AM 61.0 °F - 59.5 °F 95% 30.07 in 2.5 mi Calm Calm - N/A   Scattered Clouds
8:35 AM 63.9 °F - 62.6 °F 96% 30.07 in 5.0 mi Calm Calm - N/A   Scattered Clouds
8:55 AM 66.0 °F - 64.8 °F 96% 30.07 in 5.0 mi Calm Calm - N/A   Clear
9:15 AM 66.2 °F - 64.9 °F 96% 30.07 in 10.0 mi SSE 8.1 mph - N/A   Clear
9:35 AM 68.9 °F - 67.6 °F 96% 30.07 in 10.0 mi SSE 4.6 mph - N/A   Clear
9:55 AM 71.1 °F - 68.4 °F 91% 30.07 in 10.0 mi SSE 4.6 mph - N/A   Clear
10:15 AM 72.7 °F - 68.5 °F 87% 30.07 in 10.0 mi South 4.6 mph - N/A   Clear
10:35 AM 74.1 °F - 67.1 °F 79% 30.07 in 10.0 mi South 4.6 mph - N/A   Clear
10:55 AM 76.3 °F - 65.7 °F 70% 30.06 in 10.0 mi South 6.9 mph - N/A   Clear
11:15 AM 77.9 °F - 61.2 °F 56% 30.07 in 10.0 mi SSW 5.8 mph - N/A   Mostly Cloudy
11:35 AM 78.3 °F - 58.6 °F 51% 30.06 in 10.0 mi South 5.8 mph - N/A   Scattered Clouds
11:55 AM 79.3 °F - 59.2 °F 50% 30.06 in 10.0 mi SSW 5.8 mph - N/A   Clear
12:15 PM 79.9 °F - 59.7 °F 50% 30.05 in 10.0 mi SSW 8.1 mph - N/A   Scattered Clouds
12:35 PM 81.0 °F 81.2 °F 58.6 °F 46% 30.05 in 10.0 mi SSW 8.1 mph - N/A   Scattered Clouds
12:55 PM 80.4 °F 80.8 °F 58.1 °F 46% 30.04 in 10.0 mi SW 8.1 mph - N/A   Scattered Clouds
1:15 PM 80.6 °F 80.8 °F 57.7 °F 45% 30.03 in 10.0 mi South 6.9 mph - N/A   Scattered Clouds
1:35 PM 81.7 °F 81.8 °F 58.3 °F 45% 30.02 in 10.0 mi WSW 4.6 mph - N/A   Scattered Clouds
1:55 PM 82.0 °F 81.8 °F 57.2 °F 43% 30.01 in 10.0 mi WSW 9.2 mph - N/A   Scattered Clouds
2:15 PM 81.7 °F 81.5 °F 57.4 °F 43% 30.01 in 10.0 mi SSW 5.8 mph - N/A   Clear
2:35 PM 82.2 °F 81.8 °F 56.5 °F 41% 30.00 in 10.0 mi SW 6.9 mph - N/A   Scattered Clouds
2:55 PM 82.0 °F 81.7 °F 57.0 °F 42% 30.00 in 10.0 mi South 6.9 mph - N/A   Mostly Cloudy
3:15 PM 82.0 °F 81.7 °F 56.7 °F 42% 30.00 in 10.0 mi ESE 5.8 mph - N/A   Mostly Cloudy
3:35 PM 82.6 °F 82.2 °F 57.0 °F 42% 29.99 in 10.0 mi SE 5.8 mph - N/A   Mostly Cloudy
3:55 PM 82.8 °F 82.4 °F 57.2 °F 42% 29.99 in 10.0 mi SSE 8.1 mph - N/A   Scattered Clouds
4:15 PM 82.4 °F 82.0 °F 57.4 °F 42% 29.98 in 10.0 mi SE 6.9 mph - N/A   Scattered Clouds
4:35 PM 81.9 °F 81.7 °F 57.2 °F 43% 29.98 in 10.0 mi SSE 6.9 mph - N/A   Clear
4:55 PM 81.5 °F 81.4 °F 57.0 °F 43% 29.97 in 10.0 mi SSE 5.8 mph - N/A   Clear
5:15 PM 80.8 °F 80.9 °F 57.0 °F 44% 29.97 in 10.0 mi SE 6.9 mph - N/A   Scattered Clouds
5:35 PM 79.2 °F - 57.7 °F 48% 29.97 in 10.0 mi SSE 5.8 mph - N/A   Scattered Clouds
5:55 PM 77.5 °F - 58.3 °F 51% 29.96 in 10.0 mi SE 3.5 mph - N/A   Clear
6:15 PM 74.3 °F - 58.3 °F 57% 29.96 in 10.0 mi SE 3.5 mph - N/A   Clear
6:35 PM 71.4 °F - 58.8 °F 64% 29.96 in 10.0 mi Calm Calm - N/A   Clear
6:55 PM 67.3 °F - 58.8 °F 74% 29.97 in 10.0 mi Calm Calm - N/A   Clear
7:15 PM 67.3 °F - 58.5 °F 73% 29.97 in 10.0 mi Calm Calm - N/A   Clear
7:35 PM 66.7 °F - 59.5 °F 78% 29.97 in 10.0 mi Calm Calm - N/A   Clear
7:55 PM 65.5 °F - 58.6 °F 79% 29.97 in 10.0 mi Calm Calm - N/A   Clear
8:15 PM 63.5 °F - 57.7 °F 81% 29.97 in 10.0 mi Calm Calm - N/A   Clear
8:35 PM 62.1 °F - 57.2 °F 84% 29.98 in 10.0 mi Calm Calm - N/A   Clear
8:55 PM 62.1 °F - 57.4 °F 85% 29.99 in 10.0 mi Calm Calm - N/A   Clear
9:15 PM 62.6 °F - 58.3 °F 86% 29.99 in 10.0 mi Calm Calm - N/A   Clear
9:35 PM 62.1 °F - 58.1 °F 87% 29.99 in 10.0 mi Calm Calm - N/A   Clear
9:55 PM 62.6 °F - 58.5 °F 86% 29.99 in 10.0 mi Calm Calm - N/A   Clear
10:15 PM 61.7 °F - 57.6 °F 86% 30.00 in 10.0 mi Calm Calm - N/A   Clear
10:35 PM 61.2 °F - 57.4 °F 87% 30.00 in 10.0 mi Calm Calm - N/A   Clear
10:55 PM 60.3 °F - 56.5 °F 87% 30.00 in 10.0 mi Calm Calm - N/A   Clear
11:15 PM 59.5 °F - 56.1 °F 88% 30.00 in 7.0 mi Calm Calm - N/A   Clear
11:35 PM 60.3 °F - 57.2 °F 90% 30.00 in 10.0 mi Calm Calm - N/A   Clear
11:55 PM 60.1 °F - 57.2 °F 90% 30.00 in 7.0 mi Calm Calm - N/A   Clear